| time (UTC) | temp F | wind direction | speed MPH | gust MPH | rain 1hr in | rain 24hr in | rain mn in | humidity % | barometer mb |
| 20260504060105 | 54 | 191 | 1.0 | 5.0 | 0.00 | 0.00 | 0.00 | 81 | 1005.1 |
| 20260504050605 | 54 | 180 | 0.0 | 3.0 | 0.00 | 0.00 | 0.00 | 81 | 1004.7 |
| 20260504050105 | 54 | 287 | 1.0 | 3.0 | 0.00 | 0.00 | 0.00 | 81 | 1004.7 |
| 20260504045605 | 54 | 102 | 0.0 | 5.0 | 0.00 | 0.00 | 0.00 | 80 | 1004.7 |
| 20260504045107 | 55 | 132 | 0.0 | 3.0 | 0.00 | 0.00 | 0.00 | 80 | 1004.7 |
| 20260504044605 | 55 | 160 | 1.0 | 2.0 | 0.00 | 0.00 | 0.00 | 79 | 1004.7 |
| 20260504043605 | 55 | 98 | 0.0 | 2.0 | 0.00 | 0.00 | 0.00 | 79 | 1004.4 |
| 20260504043106 | 55 | 115 | 0.0 | 3.0 | 0.00 | 0.00 | 0.00 | 78 | 1004.4 |
| 20260504042606 | 55 | 157 | 0.0 | 2.0 | 0.00 | 0.00 | 0.00 | 78 | 1004.4 |
| 20260504042105 | 55 | 102 | 1.0 | 5.0 | 0.00 | 0.00 | 0.00 | 77 | 1004.4 |
| 20260504041606 | 55 | 129 | 0.0 | 3.0 | 0.00 | 0.00 | 0.00 | 77 | 1004.4 |
| 20260504041106 | 55 | 135 | 1.0 | 2.0 | 0.00 | 0.00 | 0.00 | 77 | 1004.1 |
| 20260504040605 | 55 | 138 | 2.0 | 3.0 | 0.00 | 0.00 | 0.00 | 76 | 1004.4 |
| 20260504035105 | 56 | 145 | 2.0 | 5.0 | 0.00 | 0.00 | 0.00 | 75 | 1004.4 |
| 20260504034605 | 56 | 155 | 2.0 | 6.0 | 0.00 | 0.00 | 0.00 | 74 | 1004.4 |
| 20260504034105 | 56 | 123 | 0.0 | 3.0 | 0.00 | 0.00 | 0.00 | 74 | 1004.1 |
| 20260504033605 | 56 | 173 | 1.0 | 3.0 | 0.00 | 0.00 | 0.00 | 74 | 1004.4 |
| 20260504033106 | 56 | 158 | 1.0 | 3.0 | 0.00 | 0.00 | 0.00 | 73 | 1004.1 |
| 20260504032606 | 57 | 165 | 1.0 | 5.0 | 0.00 | 0.00 | 0.00 | 73 | 1004.1 |
| 20260504032105 | 57 | 193 | 0.0 | 2.0 | 0.00 | 0.00 | 0.00 | 72 | 1004.1 |
| 20260504031605 | 57 | 112 | 0.0 | 2.0 | 0.00 | 0.00 | 0.00 | 72 | 1004.1 |
| 20260504031106 | 58 | 162 | 1.0 | 6.0 | 0.00 | 0.00 | 0.00 | 71 | 1003.8 |
| 20260504030605 | 58 | 108 | 1.0 | 7.0 | 0.00 | 0.00 | 0.00 | 69 | 1004.0 |
| 20260504030106 | 59 | 245 | 1.0 | 8.0 | 0.00 | 0.00 | 0.00 | 68 | 1003.7 |
| 20260504025105 | 60 | 126 | 1.0 | 3.0 | 0.00 | 0.00 | 0.00 | 65 | 1003.7 |
| 20260504024106 | 61 | 44 | 2.0 | 5.0 | 0.00 | 0.00 | 0.00 | 64 | 1003.4 |
| 20260504023106 | 62 | 183 | 1.0 | 5.0 | 0.00 | 0.00 | 0.00 | 62 | 1003.4 |
| 20260504022605 | 63 | 128 | 1.0 | 3.0 | 0.00 | 0.00 | 0.00 | 61 | 1003.4 |
| 20260504022107 | 63 | 155 | 0.0 | 2.0 | 0.00 | 0.00 | 0.00 | 61 | 1003.4 |
| 20260504021607 | 63 | 193 | 1.0 | 5.0 | 0.00 | 0.00 | 0.00 | 60 | 1003.4 |
| 20260504021105 | 64 | 111 | 1.0 | 6.0 | 0.00 | 0.00 | 0.00 | 59 | 1003.0 |
| 20260504020605 | 64 | 139 | 1.0 | 3.0 | 0.00 | 0.00 | 0.00 | 59 | 1003.0 |
| 20260504020106 | 64 | 175 | 2.0 | 6.0 | 0.00 | 0.00 | 0.00 | 59 | 1003.0 |
| 20260504015605 | 64 | 248 | 1.0 | 5.0 | 0.00 | 0.00 | 0.00 | 60 | 1003.0 |
| 20260504015105 | 64 | 218 | 2.0 | 8.0 | 0.00 | 0.00 | 0.00 | 60 | 1003.0 |
| 20260504014605 | 63 | 225 | 3.0 | 6.0 | 0.00 | 0.00 | 0.00 | 60 | 1003.0 |
| 20260504014105 | 63 | 205 | 3.0 | 7.0 | 0.00 | 0.00 | 0.00 | 59 | 1003.0 |
| 20260504013605 | 63 | 234 | 3.0 | 7.0 | 0.00 | 0.00 | 0.00 | 57 | 1003.1 |
| 20260504013105 | 64 | 235 | 2.0 | 8.0 | 0.00 | 0.00 | 0.00 | 56 | 1003.4 |
| 20260504011607 | 65 | 234 | 3.0 | 8.0 | 0.00 | 0.00 | 0.00 | 54 | 1003.1 |
| 20260504011105 | 65 | 248 | 2.0 | 6.0 | 0.00 | 0.00 | 0.00 | 54 | 1003.4 |
| 20260504010605 | 66 | 159 | 2.0 | 5.0 | 0.00 | 0.00 | 0.00 | 53 | 1003.4 |
| 20260504010105 | 66 | 222 | 2.0 | 7.0 | 0.00 | 0.00 | 0.00 | 53 | 1003.4 |
| 20260504005605 | 66 | 244 | 1.0 | 6.0 | 0.00 | 0.00 | 0.00 | 54 | 1003.1 |
| 20260504005106 | 66 | 236 | 1.0 | 7.0 | 0.00 | 0.00 | 0.00 | 54 | 1003.1 |
| 20260504004605 | 65 | 210 | 1.0 | 9.0 | 0.00 | 0.00 | 0.00 | 55 | 1003.1 |
| 20260504004104 | 65 | 220 | 2.0 | 6.0 | 0.00 | 0.00 | 0.00 | 55 | 1003.4 |
| 20260504003606 | 64 | 192 | 3.0 | 10.0 | 0.00 | 0.00 | 0.00 | 55 | 1003.0 |
| 20260504003106 | 65 | 246 | 4.0 | 8.0 | 0.00 | 0.00 | 0.00 | 55 | 1003.1 |
| 20260504002605 | 66 | 242 | 4.0 | 8.0 | 0.00 | 0.00 | 0.00 | 54 | 1003.0 |
| 20260504002105 | 66 | 205 | 2.0 | 6.0 | 0.00 | 0.00 | 0.00 | 54 | 1003.0 |
| 20260504001605 | 66 | 259 | 3.0 | 6.0 | 0.00 | 0.00 | 0.00 | 54 | 1003.4 |
| 20260504000605 | 66 | 188 | 3.0 | 8.0 | 0.00 | 0.00 | 0.00 | 54 | 1003.0 |
| 20260504000105 | 66 | 190 | 3.0 | 8.0 | 0.00 | 0.00 | 0.00 | 55 | 1003.0 |
| 20260503235105 | 66 | 246 | 5.0 | 10.0 | 0.00 | 0.00 | 0.00 | 56 | 1003.0 |
| 20260503234605 | 65 | 221 | 3.0 | 10.0 | 0.00 | 0.00 | 0.00 | 57 | 1003.0 |
| 20260503234105 | 65 | 178 | 3.0 | 9.0 | 0.00 | 0.00 | 0.00 | 57 | 1002.7 |
| 20260503233606 | 65 | 230 | 5.0 | 13.0 | 0.00 | 0.00 | 0.00 | 57 | 1002.7 |
| 20260503233105 | 65 | 238 | 5.0 | 10.0 | 0.00 | 0.00 | 0.00 | 57 | 1002.4 |
| 20260503232605 | 65 | 232 | 5.0 | 12.0 | 0.00 | 0.00 | 0.00 | 57 | 1002.7 |
| 20260503232105 | 65 | 236 | 6.0 | 12.0 | 0.00 | 0.00 | 0.00 | 58 | 1002.7 |
| 20260503231106 | 65 | 229 | 3.0 | 9.0 | 0.00 | 0.00 | 0.00 | 57 | 1002.7 |
| 20260503225605 | 65 | 191 | 5.0 | 10.0 | 0.00 | 0.00 | 0.00 | 57 | 1002.7 |
| 20260503225104 | 65 | 225 | 5.0 | 15.0 | 0.00 | 0.00 | 0.00 | 56 | 1002.7 |
| 20260503224605 | 66 | 230 | 4.0 | 7.0 | 0.00 | 0.00 | 0.00 | 56 | 1002.7 |
| 20260503223105 | 65 | 178 | 2.0 | 10.0 | 0.00 | 0.00 | 0.00 | 58 | 1002.7 |
| 20260503222105 | 66 | 232 | 5.0 | 10.0 | 0.00 | 0.00 | 0.00 | 57 | 1003.0 |
| 20260503221605 | 66 | 219 | 2.0 | 6.0 | 0.00 | 0.00 | 0.00 | 57 | 1003.0 |
| 20260503221106 | 66 | 335 | 3.0 | 7.0 | 0.00 | 0.00 | 0.00 | 57 | 1003.0 |
| 20260503220605 | 65 | 192 | 3.0 | 8.0 | 0.00 | 0.00 | 0.00 | 57 | 1003.0 |
| 20260503220105 | 65 | 233 | 4.0 | 12.0 | 0.00 | 0.00 | 0.00 | 58 | 1003.0 |
| 20260503215605 | 65 | 230 | 5.0 | 10.0 | 0.00 | 0.00 | 0.00 | 58 | 1003.0 |
| 20260503215105 | 65 | 251 | 4.0 | 10.0 | 0.00 | 0.00 | 0.00 | 57 | 1003.0 |
| 20260503214606 | 65 | 216 | 4.0 | 8.0 | 0.00 | 0.00 | 0.00 | 56 | 1003.4 |
| 20260503213106 | 65 | 198 | 3.0 | 9.0 | 0.00 | 0.00 | 0.00 | 57 | 1003.1 |
| 20260503212606 | 65 | 251 | 4.0 | 8.0 | 0.00 | 0.00 | 0.00 | 56 | 1003.1 |
| 20260503212105 | 66 | 197 | 3.0 | 8.0 | 0.00 | 0.00 | 0.00 | 56 | 1003.0 |
| 20260503211604 | 66 | 161 | 3.0 | 8.0 | 0.00 | 0.00 | 0.00 | 57 | 1003.0 |
| 20260503211105 | 65 | 182 | 3.0 | 8.0 | 0.00 | 0.00 | 0.00 | 59 | 1003.0 |
| 20260503210604 | 64 | 228 | 4.0 | 9.0 | 0.00 | 0.00 | 0.00 | 59 | 1003.0 |
| 20260503210105 | 64 | 326 | 3.0 | 9.0 | 0.00 | 0.00 | 0.00 | 58 | 1003.0 |
| 20260503205605 | 65 | 240 | 3.0 | 9.0 | 0.00 | 0.00 | 0.00 | 57 | 1003.0 |
| 20260503205104 | 66 | 227 | 3.0 | 9.0 | 0.00 | 0.00 | 0.00 | 56 | 1003.0 |
| 20260503204606 | 66 | 153 | 5.0 | 8.0 | 0.00 | 0.00 | 0.00 | 56 | 1003.0 |
| 20260503204105 | 66 | 157 | 3.0 | 8.0 | 0.00 | 0.00 | 0.00 | 56 | 1003.0 |
| 20260503203605 | 66 | 275 | 3.0 | 12.0 | 0.00 | 0.00 | 0.00 | 56 | 1003.0 |
| 20260503203105 | 66 | 195 | 3.0 | 12.0 | 0.00 | 0.00 | 0.00 | 56 | 1003.0 |
| 20260503202605 | 66 | 146 | 2.0 | 6.0 | 0.00 | 0.00 | 0.00 | 56 | 1003.0 |
| 20260503202105 | 66 | 212 | 3.0 | 8.0 | 0.00 | 0.00 | 0.00 | 54 | 1003.0 |
| 20260503201605 | 67 | 223 | 3.0 | 10.0 | 0.00 | 0.00 | 0.00 | 55 | 1003.0 |
| 20260503201104 | 67 | 152 | 2.0 | 10.0 | 0.00 | 0.00 | 0.00 | 56 | 1003.0 |
| 20260503200604 | 66 | 138 | 3.0 | 8.0 | 0.00 | 0.00 | 0.00 | 56 | 1003.1 |
| 20260503200105 | 66 | 216 | 3.0 | 8.0 | 0.00 | 0.00 | 0.00 | 57 | 1003.1 |
| 20260503195604 | 65 | 215 | 3.0 | 7.0 | 0.00 | 0.00 | 0.00 | 59 | 1003.4 |
| 20260503194606 | 64 | 238 | 3.0 | 8.0 | 0.00 | 0.00 | 0.00 | 61 | 1003.4 |
| 20260503194105 | 64 | 214 | 4.0 | 9.0 | 0.00 | 0.00 | 0.00 | 62 | 1003.4 |
| 20260503193604 | 63 | 244 | 3.0 | 8.0 | 0.00 | 0.00 | 0.00 | 63 | 1003.4 |
| 20260503193105 | 63 | 257 | 2.0 | 12.0 | 0.00 | 0.00 | 0.00 | 64 | 1003.7 |
| 20260503192605 | 63 | 223 | 5.0 | 8.0 | 0.00 | 0.00 | 0.00 | 65 | 1003.7 |
| 20260503192105 | 62 | 262 | 2.0 | 7.0 | 0.00 | 0.00 | 0.00 | 68 | 1003.7 |
| 20260503191606 | 61 | 146 | 2.0 | 5.0 | 0.00 | 0.00 | 0.00 | 69 | 1003.7 |
| 20260503190105 | 60 | 220 | 3.0 | 7.0 | 0.00 | 0.00 | 0.00 | 70 | 1004.0 |
| 20260503185605 | 60 | 241 | 5.0 | 8.0 | 0.00 | 0.00 | 0.00 | 70 | 1003.8 |
| 20260503184605 | 60 | 222 | 3.0 | 8.0 | 0.00 | 0.00 | 0.00 | 70 | 1004.0 |
| 20260503184104 | 60 | 229 | 3.0 | 7.0 | 0.00 | 0.00 | 0.00 | 70 | 1004.0 |
| 20260503183604 | 60 | 235 | 4.0 | 8.0 | 0.00 | 0.00 | 0.00 | 70 | 1003.7 |
| 20260503183104 | 60 | 224 | 6.0 | 9.0 | 0.00 | 0.00 | 0.00 | 69 | 1003.7 |
| 20260503182605 | 60 | 246 | 1.0 | 9.0 | 0.00 | 0.00 | 0.00 | 68 | 1003.7 |
| 20260503182105 | 61 | 238 | 4.0 | 9.0 | 0.00 | 0.00 | 0.00 | 67 | 1003.7 |
| 20260503181605 | 62 | 237 | 3.0 | 6.0 | 0.00 | 0.00 | 0.00 | 67 | 1003.7 |
| 20260503180604 | 61 | 262 | 2.0 | 6.0 | 0.00 | 0.00 | 0.00 | 67 | 1003.4 |
| 20260503180105 | 61 | 239 | 2.0 | 6.0 | 0.00 | 0.00 | 0.00 | 67 | 1003.7 |
| 20260503175105 | 61 | 244 | 2.0 | 5.0 | 0.00 | 0.00 | 0.00 | 67 | 1003.4 |
| 20260503173604 | 61 | 237 | 3.0 | 8.0 | 0.00 | 0.00 | 0.00 | 65 | 1003.4 |
| 20260503173105 | 62 | 251 | 5.0 | 10.0 | 0.00 | 0.00 | 0.00 | 64 | 1003.4 |
| 20260503172604 | 63 | 252 | 3.0 | 8.0 | 0.00 | 0.00 | 0.00 | 63 | 1003.4 |
| 20260503171605 | 63 | 142 | 2.0 | 7.0 | 0.00 | 0.00 | 0.00 | 64 | 1003.0 |
| 20260503171104 | 63 | 204 | 2.0 | 6.0 | 0.00 | 0.00 | 0.00 | 64 | 1003.4 |
| 20260503170604 | 63 | 243 | 2.0 | 5.0 | 0.00 | 0.00 | 0.00 | 66 | 1003.1 |
| 20260503170105 | 62 | 113 | 2.0 | 8.0 | 0.00 | 0.00 | 0.00 | 67 | 1003.1 |
| 20260503160105 | 58 | 192 | 1.0 | 8.0 | 0.00 | 0.00 | 0.00 | 74 | 1003.3 |
| 20260503150606 | 56 | 215 | 2.0 | 3.0 | 0.00 | 0.00 | 0.00 | 79 | 1003.0 |
| 20260503150105 | 56 | 202 | 0.0 | 5.0 | 0.00 | 0.00 | 0.00 | 79 | 1002.8 |
| 20260503140105 | 54 | 137 | 1.0 | 5.0 | 0.00 | 0.00 | 0.00 | 84 | 1002.4 |
| 20260503131104 | 53 | 155 | 0.0 | 2.0 | 0.00 | 0.00 | 0.00 | 83 | 1001.7 |
| 20260503130604 | 53 | 247 | 0.0 | 0.0 | 0.00 | 0.00 | 0.00 | 82 | 1001.7 |
| 20260503130104 | 53 | 157 | 0.0 | 1.0 | 0.00 | 0.00 | 0.00 | 82 | 1001.7 |
| 20260503120104 | 54 | 148 | 1.0 | 3.0 | 0.00 | 0.00 | 0.00 | 82 | 1001.4 |
| 20260503110604 | 53 | 156 | 1.0 | 3.0 | 0.00 | 0.00 | 0.00 | 83 | 1001.4 |
| 20260503110105 | 53 | 158 | 2.0 | 5.0 | 0.00 | 0.00 | 0.00 | 83 | 1001.7 |
| 20260503100104 | 54 | 188 | 1.0 | 3.0 | 0.00 | 0.00 | 0.00 | 82 | 1001.6 |
| 20260503090104 | 55 | 202 | 1.0 | 3.0 | 0.00 | 0.00 | 0.00 | 82 | 1001.7 |
| 20260503081104 | 55 | 188 | 2.0 | 8.0 | 0.00 | 0.00 | 0.00 | 82 | 1002.0 |
| 20260503080604 | 55 | 157 | 1.0 | 3.0 | 0.00 | 0.00 | 0.00 | 82 | 1002.0 |
| 20260503080104 | 55 | 189 | 1.0 | 3.0 | 0.00 | 0.00 | 0.00 | 81 | 1002.0 |
| 20260503072604 | 55 | 202 | 1.0 | 2.0 | 0.00 | 0.00 | 0.00 | 81 | 1002.4 |
| 20260503072104 | 55 | 225 | 1.0 | 3.0 | 0.00 | 0.00 | 0.00 | 81 | 1002.4 |
| 20260503071605 | 55 | 202 | 1.0 | 5.0 | 0.00 | 0.00 | 0.00 | 81 | 1002.4 |
| 20260503071104 | 55 | 145 | 1.0 | 3.0 | 0.00 | 0.00 | 0.00 | 81 | 1002.4 |
| 20260503070605 | 55 | 187 | 1.0 | 3.0 | 0.00 | 0.00 | 0.00 | 81 | 1002.4 |
| 20260503070105 | 55 | 156 | 1.0 | 5.0 | 0.00 | 0.00 | 0.00 | 81 | 1002.4 |